| time (UTC) | temp F | wind direction | speed knots | gust knots | rain 1hr in | rain 24hr in | rain mn in | humidity % | barometer mb |
| 20260906011505 | 86 | 252 | 2.6 | 0.0 | 0.00 | 0.00 | 0.00 | 100 | 1007.1 |
| 20260906010002 | 86 | 254 | 0.9 | 0.0 | 0.00 | 0.00 | 0.00 | 100 | 1007.0 |
| 20260906004608 | 86 | 255 | 2.6 | 0.0 | 0.00 | 0.00 | 0.00 | 100 | 1007.1 |
| 20260906003041 | 86 | 247 | 1.7 | 0.0 | 0.00 | 0.00 | 0.00 | 100 | 1006.8 |
| 20260906001537 | 86 | 253 | 1.7 | 0.0 | 0.00 | 0.00 | 0.00 | 100 | 1007.0 |
| 20260906000035 | 86 | 246 | 1.7 | 0.0 | 0.00 | 0.00 | 0.00 | 100 | 1006.9 |
| 20260905234529 | 87 | 233 | 1.7 | 0.0 | 0.00 | 0.00 | 0.00 | 100 | 1006.7 |
| 20260905233025 | 87 | 241 | 2.6 | 0.0 | 0.00 | 0.00 | 0.00 | 100 | 1006.8 |
| 20260905231521 | 88 | 261 | 2.6 | 0.0 | 0.00 | 0.00 | 0.00 | 100 | 1006.8 |
| 20260905230016 | 89 | 215 | 2.6 | 0.0 | 0.00 | 0.00 | 0.00 | 100 | 1007.1 |
| 20260905224512 | 89 | 241 | 2.6 | 0.0 | 0.00 | 0.00 | 0.00 | 100 | 1006.9 |
| 20260905223057 | 89 | 205 | 3.5 | 0.0 | 0.00 | 0.00 | 0.00 | 100 | 1007.1 |
| 20260905221552 | 90 | 215 | 2.6 | 0.0 | 0.00 | 0.00 | 0.00 | 100 | 1007.2 |
| 20260905220047 | 90 | 246 | 2.6 | 0.0 | 0.00 | 0.00 | 0.00 | 100 | 1007.2 |
| 20260905214545 | 90 | 227 | 2.6 | 0.0 | 0.00 | 0.00 | 0.00 | 100 | 1007.5 |
| 20260905213039 | 90 | 257 | 2.6 | 0.0 | 0.00 | 0.00 | 0.00 | 100 | 1007.4 |
| 20260905211535 | 90 | 275 | 2.6 | 0.0 | 0.00 | 0.00 | 0.00 | 100 | 1007.4 |
| 20260905210031 | 91 | 217 | 2.6 | 0.0 | 0.00 | 0.00 | 0.00 | 100 | 1007.3 |
| 20260905204526 | 90 | 239 | 3.5 | 0.0 | 0.00 | 0.00 | 0.00 | 100 | 1007.4 |
| 20260905203004 | 90 | 239 | 3.5 | 0.0 | 0.00 | 0.00 | 0.00 | 100 | 1007.3 |
| 20260905201600 | 90 | 250 | 2.6 | 0.0 | 0.00 | 0.00 | 0.00 | 100 | 1007.7 |
| 20260905200052 | 90 | 236 | 3.5 | 0.0 | 0.00 | 0.00 | 0.00 | 100 | 1007.8 |
| 20260905194541 | 90 | 219 | 2.6 | 0.0 | 0.00 | 0.00 | 0.00 | 100 | 1008.2 |
| 20260905193040 | 90 | 269 | 3.5 | 0.0 | 0.00 | 0.00 | 0.00 | 100 | 1008.3 |
| 20260905191537 | 90 | 246 | 3.5 | 0.0 | 0.00 | 0.00 | 0.00 | 100 | 1008.4 |
| 20260905190044 | 91 | 278 | 2.6 | 0.0 | 0.00 | 0.00 | 0.00 | 100 | 1008.4 |
| 20260905184524 | 90 | 186 | 2.6 | 0.0 | 0.00 | 0.00 | 0.00 | 100 | 1008.8 |
| 20260905183019 | 91 | 250 | 2.6 | 0.0 | 0.00 | 0.00 | 0.00 | 100 | 1009.2 |
| 20260905181518 | 91 | 272 | 3.5 | 0.0 | 0.00 | 0.00 | 0.00 | 100 | 1009.0 |
| 20260905180053 | 90 | 252 | 3.5 | 0.0 | 0.00 | 0.00 | 0.00 | 100 | 1009.3 |
| 20260905174550 | 90 | 197 | 3.5 | 0.0 | 0.00 | 0.00 | 0.00 | 100 | 1009.3 |
| 20260905173029 | 90 | 207 | 2.6 | 0.0 | 0.00 | 0.00 | 0.00 | 100 | 1009.3 |
| 20260905171522 | 90 | 208 | 2.6 | 0.0 | 0.00 | 0.00 | 0.00 | 100 | 1009.4 |
| 20260905170006 | 88 | 231 | 1.7 | 0.0 | 0.00 | 0.00 | 0.00 | 100 | 1009.8 |
| 20260905164502 | 87 | 312 | 2.6 | 0.0 | 0.00 | 0.00 | 0.00 | 100 | 1009.7 |
| 20260905163058 | 87 | 304 | 3.5 | 0.0 | 0.00 | 0.00 | 0.00 | 100 | 1009.8 |
| 20260905161553 | 90 | 265 | 1.7 | 0.0 | 0.00 | 0.00 | 0.00 | 100 | 1009.8 |
| 20260905160051 | 90 | 229 | 1.7 | 0.0 | 0.00 | 0.00 | 0.00 | 100 | 1009.8 |
| 20260905154547 | 90 | 188 | 0.9 | 0.0 | 0.00 | 0.00 | 0.00 | 100 | 1009.5 |
| 20260905153053 | 89 | 225 | 1.7 | 0.0 | 0.00 | 0.00 | 0.00 | 100 | 1009.5 |
| 20260905151540 | 89 | 219 | 1.7 | 0.0 | 0.00 | 0.00 | 0.00 | 100 | 1009.5 |
| 20260905150021 | 87 | 9 | 0.0 | 0.0 | 0.00 | 0.00 | 0.00 | 100 | 1009.6 |
| 20260905144516 | 87 | 5 | 0.0 | 0.0 | 0.00 | 0.00 | 0.00 | 100 | 1009.8 |
| 20260905143020 | 87 | 5 | 0.0 | 0.0 | 0.00 | 0.00 | 0.00 | 100 | 1009.6 |
| 20260905141508 | 86 | 5 | 0.0 | 0.0 | 0.00 | 0.00 | 0.00 | 100 | 1009.6 |
| 20260905140002 | 86 | 9 | 0.0 | 0.0 | 0.00 | 0.00 | 0.00 | 100 | 1009.3 |
| 20260905134558 | 86 | 9 | 0.0 | 0.0 | 0.00 | 0.00 | 0.00 | 100 | 1009.3 |
| 20260905133057 | 85 | 9 | 0.9 | 0.0 | 0.00 | 0.00 | 0.00 | 100 | 1009.3 |
| 20260905131604 | 84 | 9 | 0.9 | 0.0 | 0.00 | 0.00 | 0.00 | 100 | 1009.3 |
| 20260905130037 | 83 | 9 | 1.7 | 0.0 | 0.00 | 0.00 | 0.00 | 100 | 1009.3 |
| 20260905124524 | 83 | 360 | 2.6 | 0.0 | 0.00 | 0.00 | 0.00 | 100 | 1009.2 |
| 20260905123008 | 83 | 15 | 2.6 | 0.0 | 0.00 | 0.00 | 0.00 | 100 | 1009.0 |
| 20260905121504 | 0 | 0.0 | 0.0 | 0.00 | 0.00 | 0.00 | 1008.8 | ||
| 20260905120111 | 0 | 0.0 | 0.0 | 0.00 | 0.00 | 0.00 | 1008.8 | ||
| 20260905114555 | 0 | 0.0 | 0.0 | 0.00 | 0.00 | 0.00 | 1008.8 | ||
| 20260905113051 | 81 | 22 | 1.7 | 0.0 | 0.00 | 0.00 | 0.00 | 100 | 1008.8 |
| 20260905111605 | 83 | 20 | 1.7 | 0.0 | 0.00 | 0.00 | 0.00 | 100 | 1008.5 |
| 20260905110044 | 83 | 5 | 2.6 | 0.0 | 0.00 | 0.00 | 0.00 | 100 | 1008.4 |
| 20260905104538 | 83 | 332 | 1.7 | 0.0 | 0.00 | 0.00 | 0.00 | 100 | 1008.4 |
| 20260905103017 | 83 | 331 | 1.7 | 0.0 | 0.00 | 0.00 | 0.00 | 100 | 1008.3 |
| 20260905101512 | 82 | 223 | 0.0 | 0.0 | 0.00 | 0.00 | 0.00 | 100 | 1008.3 |
| 20260905100108 | 82 | 223 | 0.0 | 0.0 | 0.00 | 0.00 | 0.00 | 100 | 1008.3 |
| 20260905094552 | 82 | 223 | 0.0 | 0.0 | 0.00 | 0.00 | 0.00 | 100 | 1008.3 |
| 20260905093048 | 82 | 221 | 0.0 | 0.0 | 0.00 | 0.00 | 0.00 | 100 | 1008.3 |
| 20260905091543 | 82 | 220 | 0.0 | 0.0 | 0.00 | 0.00 | 0.00 | 100 | 1008.3 |
| 20260905090039 | 82 | 220 | 0.0 | 0.0 | 0.00 | 0.00 | 0.00 | 100 | 1008.3 |
| 20260905084534 | 83 | 220 | 0.0 | 0.0 | 0.00 | 0.00 | 0.00 | 100 | 1008.2 |
| 20260905083030 | 83 | 220 | 0.0 | 0.0 | 0.00 | 0.00 | 0.00 | 100 | 1008.1 |
| 20260905081526 | 84 | 221 | 1.7 | 0.0 | 0.00 | 0.00 | 0.00 | 100 | 1008.1 |
| 20260905080021 | 84 | 205 | 0.0 | 0.0 | 0.00 | 0.00 | 0.00 | 100 | 1008.1 |
| 20260905074508 | 84 | 201 | 0.9 | 0.0 | 0.00 | 0.00 | 0.00 | 100 | 1008.3 |
| 20260905073106 | 84 | 201 | 0.9 | 0.0 | 0.00 | 0.00 | 0.00 | 100 | 1008.2 |
| 20260905073002 | 84 | 201 | 0.9 | 0.0 | 0.00 | 0.00 | 0.00 | 100 | 1008.2 |
| 20260905071556 | 84 | 199 | 0.0 | 0.0 | 0.00 | 0.00 | 0.00 | 100 | 1007.9 |
| 20260905070052 | 84 | 205 | 0.9 | 0.0 | 0.00 | 0.00 | 0.00 | 100 | 1007.9 |
| 20260905064548 | 84 | 198 | 0.9 | 0.0 | 0.00 | 0.00 | 0.00 | 100 | 1007.8 |
| 20260905063043 | 84 | 199 | 0.9 | 0.0 | 0.00 | 0.00 | 0.00 | 100 | 1008.1 |
| 20260905061539 | 84 | 196 | 0.9 | 0.0 | 0.00 | 0.00 | 0.00 | 100 | 1008.2 |
| 20260905060037 | 84 | 196 | 0.9 | 0.0 | 0.00 | 0.00 | 0.00 | 100 | 1008.1 |
| 20260905054535 | 83 | 194 | 0.9 | 0.0 | 0.00 | 0.00 | 0.00 | 100 | 1008.3 |
| 20260905053008 | 83 | 196 | 0.0 | 0.0 | 0.00 | 0.00 | 0.00 | 100 | 1008.5 |
| 20260905051554 | 84 | 196 | 0.0 | 0.0 | 0.00 | 0.00 | 0.00 | 100 | 1008.5 |
| 20260905050049 | 84 | 196 | 0.9 | 0.0 | 0.00 | 0.00 | 0.00 | 100 | 1008.8 |
| 20260905044547 | 84 | 168 | 0.9 | 0.0 | 0.00 | 0.00 | 0.00 | 100 | 1008.8 |
| 20260905043040 | 84 | 161 | 0.9 | 0.0 | 0.00 | 0.00 | 0.00 | 100 | 1008.8 |
| 20260905041542 | 84 | 159 | 0.0 | 0.0 | 0.00 | 0.00 | 0.00 | 100 | 1008.9 |
| 20260905040031 | 84 | 159 | 0.0 | 0.0 | 0.00 | 0.00 | 0.00 | 100 | 1009.0 |
| 20260905034527 | 84 | 159 | 0.0 | 0.0 | 0.00 | 0.00 | 0.00 | 100 | 1009.2 |
| 20260905033026 | 84 | 159 | 0.9 | 0.0 | 0.00 | 0.00 | 0.00 | 100 | 1009.3 |
| 20260905031507 | 84 | 166 | 0.0 | 0.0 | 0.00 | 0.00 | 0.00 | 100 | 1009.3 |
| 20260905030002 | 84 | 166 | 0.0 | 0.0 | 0.00 | 0.00 | 0.00 | 100 | 1009.4 |
| 20260905024618 | 84 | 167 | 0.0 | 0.0 | 0.00 | 0.00 | 0.00 | 100 | 1009.6 |
| 20260905023102 | 84 | 167 | 0.0 | 0.0 | 0.00 | 0.00 | 0.00 | 100 | 1009.4 |
| 20260905021549 | 84 | 167 | 0.9 | 0.0 | 0.00 | 0.00 | 0.00 | 100 | 1009.3 |
| 20260905020044 | 84 | 168 | 0.0 | 0.0 | 0.00 | 0.00 | 0.00 | 100 | 1009.2 |
| 20260905014540 | 84 | 168 | 0.0 | 0.0 | 0.00 | 0.00 | 0.00 | 100 | 1009.0 |
| 20260905013036 | 84 | 168 | 0.0 | 0.0 | 0.00 | 0.00 | 0.00 | 100 | 1008.8 |